Hourly Data Report for March 06, 2015

All times are specified in Local Standard Time (LST). Add 1 hour to adjust for Daylight Saving Time where and when it is observed.

MIRAMICHI RCS
NEW BRUNSWICK

47°00'34.000" N
65°27'54.000" W
33.00 m
8100989
71744
ACQ

Download Data

Hourly Data (March 2015)
Hourly Data Report for March 6, 2015
TIME Temp Definition
°C
Dew Point Definition
°C
Rel Hum Definition
%
Wind Dir Definition
10's deg

Wind Spd Definition
km/h
Visibility Definition
km
Stn Press Definition
kPa
Hmdx Definition


Wind Chill Definition


Weather Definition


00:00 -17.0 -24.1 54 26 8   101.80   -23 LegendNANA
01:00 -16.6 -23.7 54 30 8   101.76   -22 LegendNANA
02:00 -16.7 -23.5 55 30 9   101.85   -23 LegendNANA
03:00 -17.2 -23.6 57 30 8   101.89   -23 LegendNANA
04:00 -17.8 -23.6 61 28 7   101.97   -23 LegendNANA
05:00 -19.7 -24.6 65 27 6   102.06   -25 LegendNANA
06:00 -23.1 -26.5 74 23 5   102.11   -28 LegendNANA
07:00 -26.3 -29.3 76 0 1   102.16   -27 LegendNANA
08:00 -23.0 -27.3 68 25 6   102.22   -28 LegendNANA
09:00 -18.4 -23.9 62 23 13   102.28   -26 LegendNANA
10:00 -13.9 -21.8 51 25 13   102.24   -21 LegendNANA
11:00 -12.4 -20.9 49 23 15   102.23   -20 LegendNANA
12:00 -10.5 -20.1 45 23 17   102.19   -18 LegendNANA
13:00 -8.2 -21.3 34 25 14   102.11   -14 LegendNANA
14:00 -7.4 -18.8 40 26 22   102.03   -15 LegendNANA
15:00 -6.8 -22.1 28 27 22   101.95   -14 LegendNANA
16:00 -6.5 -21.7 29 25 20   101.90   -13 LegendNANA
17:00 -6.7 -21.3 30 26 22   101.90   -14 LegendNANA
18:00 -7.7 -21.8 31 26 15   101.87   -14 LegendNANA
19:00 -11.0 -21.4 42 23 13   101.90   -17 LegendNANA
20:00 -12.9 -22.6 44 22 11   101.86   -19 LegendNANA
21:00 -13.3 -22.8 45 19 7   101.81   -18 LegendNANA
22:00 -11.2 -20.8 45 23 15   101.75   -18 LegendNANA
23:00 -10.5 -21.1 41 21 20   101.71   -18 LegendNANA

Notes on Data Quality.

Legend

  • E = Estimated
  • M = Missing
  • NA = Not Available
Date modified: